User: anonymous   Login
Location: Unspecified
(0.0000°N, 0.0000°E)
Time: 09:20:28
(UTC+00:00)
Language:

ITAMSAT 1 - Orbit

View from above orbital plane
View from above orbital plane
View from above satellite
View from above satellite

Ground track
Ground track

The orbit data is extracted from the following two-line orbital elements,

1 22826U 93061D   18051.90702554 -.00000001 +00000-0 +17471-4 0  9992
2 22826 098.8430 026.0544 0008268 321.4827 038.5764 14.30353060272881
Epoch (UTC): 20 February 2018 21:46:07
Eccentricity: 0.0008268
inclination: 98.8430°
perigee height: 784 km
apogee height: 796 km
right ascension of ascending node: 26.0544°
argument of perigee: 321.4827°
revolutions per day: 14.30353060
mean anomaly at epoch: 38.5764°
orbit number at epoch: 27288

The dashed part of the orbit path shows where the satellite is in the earth's shadow,  

DLR